Regional Weather Roundup
Issued by NWS

Current Version | Previous Version | Text Only | Print | Product List | Glossary On
Versions: 1 2 3 4 5 6 7 8 9 10 11 12 13 14 15 16 17 18 19 20 21 22 23 24 25 26 27 28 29 30 31 32 33 34 35 36 37 38 39 40 41 42 43 44 45 46 47 48 49
000
ASUS42 KTBW 020810
RWRFL
FLORIDA REGIONAL WEATHER ROUNDUP
NATIONAL WEATHER SERVICE TAMPA BAY RUSKIN FL
400 AM EDT THU OCT 02 2014

NOTE: "FAIR" INDICATES FEW OR NO CLOUDS BELOW 12,000 FEET WITH NO
SIGNIFICANT WEATHER AND/OR OBSTRUCTIONS TO VISIBILITY.


FLZ001>010-012>015-112-114-115-020900-
PANHANDLE FLORIDA

CITY           SKY/WX    TMP DP  RH WIND       PRES   REMARKS
PENSACOLA      PTCLDY    73  71  93 CALM      29.98S
PENSACOLA NAS  CLEAR     77  73  87 SE7       29.97S
MILTON NAS     CLEAR     68  66  93 CALM      29.99R
CRESTVIEW      CLEAR     65  64  97 CALM      30.00S
DUKE FIELD     FAIR      66  66 100 CALM      29.99S
VALPARAISO     PTCLDY    70  68  93 N1        29.99S
MARY ESTHER    CLEAR     70  66  87 N5        29.97S
TRI COUNTY     CLOUDY    68  67  96 CALM      30.01S
PANAMA CITY    FAIR      71  68  90 CALM      29.99S
TYNDALL AFB    PTCLDY    73  73 100 E2        30.00S
APALACHICOLA   PTCLDY    73  69  87 NE5       29.99S

STATION/POSITION SKY/WX   TEMP    WIND        PRES    WAVE   SWELL
                          AIR SEA DIR/SP/G            HT/PER HT/PER
                          (F)     (DEG/KT/KT) (MB)    (FT/S) (FT/S)
30.1N   87.6W              80 81  160/ 10/ 12 1014.7F   1/ 3
29.2N   88.2W              81 82  140/ 14/ 14 1014.4F   2/ 3
28.8N   86.0W              81 83  110/  8/ 10 1014.6F   1/ 5
PANAMA CITY BEAC           77 81  100/  7/  9 1015.4F
CAPE SAN BLAS    NOT AVBL
TOWER C                    79     100/  9/ 10 1015.2F
28.5N   84.5W              80 83   60/  4/  4 1014.8F   1

$$
FLZ011-016>038-118-127-128-134-139-239-020900-
NORTH FLORIDA

CITY           SKY/WX    TMP DP  RH WIND       PRES   REMARKS
MARIANNA       CLOUDY    70  70 100 CALM      30.00S
TALLAHASSEE    PTCLDY    68  66  93 CALM      30.00F
PERRY          CLEAR     66  66 100 CALM      30.00F FOG
CROSS CITY       N/A     72  70  93 CALM      29.99S
LAKE CITY      FAIR      70  70 100 CALM      30.00S
GAINESVILLE    CLOUDY    73  71  93 CALM      29.99F
MAYPORT NAS    CLOUDY    77  73  87 N3        30.00S
JACKSONVILLE   CLOUDY    72  71  97 CALM      30.00S
JAX NAS        MOCLDY    80  71  74 N6        30.00S
JAX CRAIG      CLOUDY    75  72  90 CALM      30.00S
JAX CECIL      CLOUDY    72  72 100 CALM      30.00S
FERNANDINA BEA CLOUDY    81  73  78 N3        29.99S
ST AUGUSTINE   CLOUDY    76  73  91 CALM      30.00S

STATION/POSITION SKY/WX   TEMP    WIND        PRES    WAVE   SWELL
                          AIR SEA DIR/SP/G            HT/PER HT/PER
                          (F)     (DEG/KT/KT) (MB)    (FT/S) (FT/S)
SHELL POINT                77     110/  4/  8   N/A
KEATON BEACH               71      50/  4/  6 1015.8S
CEDAR KEY                  76      70/  7/  7 1015.7F
FERNANDINA                 77 78  340/  3/  4 1015.4R
30.7N   81.3W                 79                N/A     2/ 4
MAYPORT                    78 78   20/  3/  4   N/A
31.4N   80.9W              78 79   90/  6/  6 1016.3R   2/ 8   2/ 8
ST AUGUSTINE               79      70/  4/  5 1016.0S

$$
FLZ040-043>046-052-053-057-058-063-144-020900-
INTERIOR CENTRAL FLORIDA

CITY           SKY/WX    TMP DP  RH WIND       PRES   REMARKS
OCALA          CLEAR     72  70  94 N5        29.99S
THE VILLAGES     N/A     75  75 100 CALM      29.89S
LEESBURG       MOCLDY    75  73  93 NE6       29.99S
SANFORD        PTCLDY    75  73  93 CALM      29.98R
ORLANDO EXEC   CLEAR     75  73  93 N3        29.97S
ORLANDO INTL   PTCLDY    74  74 100 N6        29.97S
WINTER HAVEN   CLEAR     75  74  96 N5        29.98S
LAKELAND       CLEAR     73  72  94 CALM      29.97S
BARTOW         FAIR      73  73 100 CALM      29.98R
OKEECHOBEE       N/A     72  72 100 MISG      29.96

$$
FLZ041-047-054-059-064-141-147-020900-
EAST CENTRAL FLORIDA

CITY           SKY/WX    TMP DP  RH WIND       PRES   REMARKS
DAYTONA BEACH  PTCLDY    75  74  96 CALM      29.98S
DELAND         SUNNY     73  72  94 MISG      29.99S
JFK SPACE CTR  MOCLDY    75  73  94 NE9       29.97R
CAPE CANAVERAL CLEAR     78  74  89 NE3       29.95S
PATRICK AFB    PTCLDY    79  77  94 N5        29.95S
MELBOURNE      PTCLDY    77  75  93 NW7       29.95S
VERO BEACH     CLEAR     74  71  91 NW5       29.94S
FT PIERCE      FOG       75  73  93 NW5       29.95R VSB 3/4
STUART         CLEAR     73  73 100 CALM      29.95S

STATION/POSITION SKY/WX   TEMP    WIND        PRES    WAVE   SWELL
                          AIR SEA DIR/SP/G            HT/PER HT/PER
                          (F)     (DEG/KT/KT) (MB)    (FT/S) (FT/S)
28.5N   80.2W              80 83   80/ 12/ 14 1014.2F
28.9N   78.5W              79 84   90/ 12/ 14 1014.4S   3/ 8   2/ 8
TRIDENT PIER               77 84   10/  3/  4 1013.7S
28.4N   80.5W                 83                N/A     2/13
27.6N   80.2W                 83                N/A     2/ 8

$$
FLZ050-056-061-142-242-148-248-149-249-151-251-155-255-
160-260-020900-
WEST CENTRAL FLORIDA

CITY           SKY/WX    TMP DP  RH WIND       PRES   REMARKS
CRYSTAL RIVER  FAIR      72  72 100 CALM      29.98S
INVERNESS      FAIR      72  61  68 CALM      29.98F HAZE
BROOKSVILLE    PTCLDY    72  71  97 CALM      29.98F
ZEPHYRHILLS      N/A     64  64 100 CALM      29.98S
CLEARWATER     MOCLDY    78  75  90 N6        29.96S
TAMPA INTL     PTCLDY    76  73  91 N7        29.97S
TAMPA EXEC     CLEAR     75  73  94 CALM      29.97S
PLANT CITY     CLEAR     77 N/A N/A N3        29.99S
MACDILL AFB    CLEAR     74  74 100 E2        29.96S
ST PETERSBURG  MOCLDY    79  75  87 E6        29.94S
SARASOTA       CLEAR     75  74  96 N3        29.95S
VENICE           N/A     75  75 100 MISG      29.96S

STATION/POSITION SKY/WX   TEMP    WIND        PRES    WAVE   SWELL
                          AIR SEA DIR/SP/G            HT/PER HT/PER
                          (F)     (DEG/KT/KT) (MB)    (FT/S) (FT/S)
CEDAR KEY                  76      70/  7/  7 1015.7F
28.5N   84.5W              80 83   60/  4/  4 1014.8F   1
27.3N   84.3W                 84                N/A     1/ 3
CLEARWATER BEACH           78 83   50/  4/  6 1014.4F
MIDDLE TAMPA BAY           78     110/  3/  5 1014.7R
VENICE                     78 85   60/  3/  4 1013.9F

$$
FLZ066-069-070-075>078-162-262-165-265-020900-
SOUTHWEST FLORIDA AND KEYS

CITY           SKY/WX    TMP DP  RH WIND       PRES   REMARKS
PUNTA GORDA    CLEAR     76  74  93 NE5       29.97S
FT MYERS       CLEAR     76  75  97 CALM      29.95S
SOUTHWEST INTL CLEAR     76  74  93 CALM      29.96S
NAPLES         CLEAR     80  76  87 CALM      29.95F
MARCO ISLAND   SUNNY     79  75  89 CALM      29.96R
MARATHON       CLEAR     80  78  94 CALM      29.96F
KEY WEST NAS   MOCLDY    82  76  81 CALM      29.96F
KEY WEST INTL  CLOUDY    83  76  79 CALM      29.96F

STATION/POSITION SKY/WX   TEMP    WIND        PRES    WAVE   SWELL
                          AIR SEA DIR/SP/G            HT/PER HT/PER
                          (F)     (DEG/KT/KT) (MB)    (FT/S) (FT/S)
VENICE                     78 85   60/  3/  4 1013.9F
NAPLES                     82 88  300/  5/  5 1014.8F
DRY TORTUGAS               84     120/  3/  3 1014.5F
NW FL BAY                  85     280/  3/  4 1015.0F
SAND KEY                   83     130/  3/  3 1014.6F
SOMBRERO KEY               83     280/  1/  2 1015.2F
LONG KEY                   84 87  270/  3/  3 1015.1F
MOLASSES REEF              83 85  260/  4/  5 1014.4F

$$
FLZ067-068-071>074-168-172>174-020900-
SOUTHEAST FLORIDA

CITY           SKY/WX    TMP DP  RH WIND       PRES   REMARKS
W PALM BEACH   CLEAR     77  76  96 SW5       29.93F
FT LAUDER-EXEC CLEAR     79  75  87 CALM      29.94S
FT LAUDERDALE  PTCLDY    80  76  87 W5        29.95R
POMPANO BEACH  CLEAR     81  77  88 W6        29.94F
PEMBROKE PINES CLEAR     79  77  94 SW5       29.96S
OPA LOCKA      CLEAR     79  76  90 NW5       29.96R
MIAMI          PTCLDY    81  76  84 W3        29.96S
WEST KENDALL   CLEAR     79  76  90 CALM      29.96S
HOMESTEAD      CLEAR     77  75  94 CALM      29.95F

STATION/POSITION SKY/WX   TEMP    WIND        PRES    WAVE   SWELL
                          AIR SEA DIR/SP/G            HT/PER HT/PER
                          (F)     (DEG/KT/KT) (MB)    (FT/S) (FT/S)
PORT EVERGLADES            80     220/  2/  3 1014.1
VIRGINIA KEY               82 86  280/  5/  7 1014.7S
LAKE WORTH                 78 85  250/  5/  6 1013.6S
FOWEY ROCKS                82 85  280/ 11/ 11 1014.4F
SETTLEMENT POINT           82     240/ 12/ 13 1014.3S

$$



USA.gov is the U.S. government's official web portal to all federal, state and local government web resources and services.